| time (UTC) | temp C | wind direction | speed KPH | gust KPH | rain 1hr cm | rain 24hr cm | rain mn cm | humidity % | barometer mb |
| 20260906002509 | 21 | 98 | 0.0 | 3.2 | 0.00 | 0.00 | 0.00 | 42 | 1016.9 |
| 20260906002007 | 21 | 98 | 0.0 | 3.2 | 0.00 | 0.00 | 0.00 | 42 | 1016.9 |
| 20260906001505 | 21 | 114 | 0.0 | 3.2 | 0.00 | 0.00 | 0.00 | 42 | 1017.0 |
| 20260906001003 | 21 | 115 | 0.0 | 3.2 | 0.00 | 0.00 | 0.00 | 42 | 1016.9 |
| 20260906000503 | 21 | 119 | 1.6 | 4.8 | 0.00 | 0.00 | 0.00 | 42 | 1016.9 |
| 20260906000003 | 21 | 339 | 1.6 | 4.8 | 0.00 | 0.00 | 0.00 | 42 | 1016.8 |
| 20260905235502 | 22 | 98 | 0.0 | 3.2 | 0.00 | 0.00 | 0.00 | 43 | 1016.9 |
| 20260905235001 | 22 | 52 | 0.0 | 3.2 | 0.00 | 0.00 | 0.00 | 42 | 1016.9 |
| 20260905234501 | 22 | 55 | 0.0 | 3.2 | 0.00 | 0.00 | 0.00 | 43 | 1016.9 |
| 20260905234001 | 22 | 55 | 0.0 | 3.2 | 0.00 | 0.00 | 0.00 | 44 | 1016.9 |
| 20260905233501 | 22 | 55 | 0.0 | 3.2 | 0.00 | 0.00 | 0.00 | 43 | 1016.9 |
| 20260905233308 | 21 | 73 | 0.0 | 3.2 | 0.00 | 0.00 | 0.00 | 43 | 1016.9 |
| 20260905232501 | 21 | 322 | 1.6 | 4.8 | 0.00 | 0.00 | 0.00 | 44 | 1016.9 |
| 20260905232258 | 21 | 322 | 1.6 | 4.8 | 0.00 | 0.00 | 0.00 | 43 | 1017.0 |
| 20260905231501 | 22 | 319 | 1.6 | 4.8 | 0.00 | 0.00 | 0.00 | 43 | 1017.0 |
| 20260905231001 | 22 | 19 | 1.6 | 4.8 | 0.00 | 0.00 | 0.00 | 43 | 1017.0 |
| 20260905230502 | 22 | 128 | 1.6 | 4.8 | 0.00 | 0.00 | 0.00 | 43 | 1017.0 |
| 20260905230257 | 22 | 304 | 1.6 | 8.0 | 0.00 | 0.00 | 0.00 | 43 | 1017.0 |
| 20260905225500 | 22 | 335 | 1.6 | 8.0 | 0.00 | 0.00 | 0.00 | 44 | 1017.0 |
| 20260905225001 | 22 | 323 | 3.2 | 8.0 | 0.00 | 0.00 | 0.00 | 43 | 1017.2 |
| 20260905224501 | 22 | 317 | 1.6 | 8.0 | 0.00 | 0.00 | 0.00 | 44 | 1017.1 |
| 20260905224001 | 22 | 112 | 0.0 | 6.4 | 0.00 | 0.00 | 0.00 | 44 | 1017.1 |
| 20260905223503 | 21 | 73 | 0.0 | 6.4 | 0.00 | 0.00 | 0.00 | 44 | 1017.1 |
| 20260905223259 | 21 | 98 | 3.2 | 11.3 | 0.00 | 0.00 | 0.00 | 45 | 1017.3 |
| 20260905222503 | 21 | 98 | 3.2 | 11.3 | 0.00 | 0.00 | 0.00 | 45 | 1017.3 |
| 20260905222003 | 21 | 109 | 3.2 | 8.0 | 0.00 | 0.00 | 0.00 | 46 | 1017.3 |
| 20260905221505 | 21 | 98 | 3.2 | 11.3 | 0.00 | 0.00 | 0.00 | 44 | 1017.4 |
| 20260905221002 | 21 | 98 | 3.2 | 11.3 | 0.00 | 0.00 | 0.00 | 45 | 1017.4 |
| 20260905220502 | 22 | 23 | 1.6 | 4.8 | 0.00 | 0.00 | 0.00 | 44 | 1017.5 |
| 20260905220003 | 22 | 109 | 1.6 | 3.2 | 0.00 | 0.00 | 0.00 | 44 | 1017.5 |
| 20260905215458 | 22 | 294 | 1.6 | 6.4 | 0.00 | 0.00 | 0.00 | 44 | 1017.5 |
| 20260905214959 | 22 | 122 | 1.6 | 6.4 | 0.00 | 0.00 | 0.00 | 44 | 1017.5 |
| 20260905214459 | 22 | 98 | 1.6 | 6.4 | 0.00 | 0.00 | 0.00 | 44 | 1017.5 |
| 20260905213959 | 22 | 104 | 1.6 | 6.4 | 0.00 | 0.00 | 0.00 | 43 | 1017.5 |
| 20260905213459 | 22 | 127 | 1.6 | 14.5 | 0.00 | 0.00 | 0.00 | 46 | 1017.6 |
| 20260905212959 | 21 | 113 | 1.6 | 14.5 | 0.00 | 0.00 | 0.00 | 46 | 1017.7 |
| 20260905212456 | 21 | 311 | 3.2 | 14.5 | 0.00 | 0.00 | 0.00 | 47 | 1017.6 |
| 20260905211956 | 21 | 113 | 3.2 | 14.5 | 0.00 | 0.00 | 0.00 | 45 | 1017.7 |
| 20260905211454 | 22 | 102 | 3.2 | 14.5 | 0.00 | 0.00 | 0.00 | 44 | 1017.7 |
| 20260905210955 | 22 | 280 | 3.2 | 14.5 | 0.00 | 0.00 | 0.00 | 44 | 1017.8 |
| 20260905210454 | 22 | 298 | 3.2 | 12.9 | 0.00 | 0.00 | 0.00 | 43 | 1017.9 |
| 20260905205954 | 22 | 318 | 4.8 | 12.9 | 0.00 | 0.00 | 0.00 | 43 | 1017.9 |
| 20260905205801 | 21 | 110 | 3.2 | 9.7 | 0.00 | 0.00 | 0.00 | 44 | 1017.9 |
| 20260905204955 | 22 | 68 | 3.2 | 11.3 | 0.00 | 0.00 | 0.00 | 43 | 1018.0 |
| 20260905204453 | 21 | 113 | 1.6 | 11.3 | 0.00 | 0.00 | 0.00 | 45 | 1018.0 |
| 20260905204251 | 21 | 111 | 1.6 | 8.0 | 0.00 | 0.00 | 0.00 | 45 | 1018.0 |
| 20260905203453 | 21 | 94 | 3.2 | 8.0 | 0.00 | 0.00 | 0.00 | 46 | 1018.1 |
| 20260905202953 | 21 | 96 | 3.2 | 12.9 | 0.00 | 0.00 | 0.00 | 46 | 1018.1 |
| 20260905202453 | 21 | 61 | 4.8 | 12.9 | 0.00 | 0.00 | 0.00 | 45 | 1018.1 |
| 20260905201952 | 21 | 96 | 3.2 | 12.9 | 0.00 | 0.00 | 0.00 | 47 | 1018.1 |
| 20260905201451 | 20 | 162 | 3.2 | 12.9 | 0.00 | 0.00 | 0.00 | 47 | 1018.2 |
| 20260905200950 | 20 | 108 | 3.2 | 9.7 | 0.00 | 0.00 | 0.00 | 47 | 1018.2 |
| 20260905200451 | 20 | 141 | 3.2 | 8.0 | 0.00 | 0.00 | 0.00 | 48 | 1018.4 |
| 20260905200245 | 20 | 303 | 3.2 | 9.7 | 0.00 | 0.00 | 0.00 | 49 | 1018.5 |
| 20260905195450 | 20 | 94 | 1.6 | 9.7 | 0.00 | 0.00 | 0.00 | 51 | 1018.5 |
| 20260905194952 | 20 | 115 | 3.2 | 9.7 | 0.00 | 0.00 | 0.00 | 52 | 1018.5 |
| 20260905194451 | 19 | 88 | 4.8 | 11.3 | 0.00 | 0.00 | 0.00 | 50 | 1018.7 |
| 20260905194249 | 19 | 90 | 3.2 | 11.3 | 0.00 | 0.00 | 0.00 | 52 | 1018.7 |
| 20260905193749 | 19 | 117 | 3.2 | 14.5 | 0.00 | 0.00 | 0.00 | 51 | 1018.9 |
| 20260905193249 | 18 | 27 | 3.2 | 14.5 | 0.00 | 0.00 | 0.00 | 54 | 1018.9 |
| 20260905192452 | 18 | 96 | 3.2 | 6.4 | 0.00 | 0.00 | 0.00 | 55 | 1018.9 |
| 20260905191950 | 18 | 303 | 3.2 | 12.9 | 0.00 | 0.00 | 0.00 | 55 | 1019.1 |
| 20260905191451 | 18 | 104 | 4.8 | 12.9 | 0.00 | 0.00 | 0.00 | 56 | 1019.1 |
| 20260905190951 | 18 | 106 | 1.6 | 6.4 | 0.00 | 0.00 | 0.00 | 56 | 1019.2 |
| 20260905190451 | 17 | 63 | 1.6 | 6.4 | 0.00 | 0.00 | 0.00 | 59 | 1019.3 |
| 20260905190243 | 17 | 100 | 3.2 | 6.4 | 0.00 | 0.00 | 0.00 | 58 | 1019.4 |
| 20260905185448 | 17 | 113 | 3.2 | 6.4 | 0.00 | 0.00 | 0.00 | 58 | 1019.4 |
| 20260905184949 | 17 | 114 | 1.6 | 9.7 | 0.00 | 0.00 | 0.00 | 59 | 1019.4 |
| 20260905184448 | 17 | 112 | 1.6 | 9.7 | 0.00 | 0.00 | 0.00 | 59 | 1019.4 |
| 20260905183948 | 17 | 116 | 1.6 | 6.4 | 0.00 | 0.00 | 0.00 | 59 | 1019.5 |
| 20260905183446 | 17 | 110 | 1.6 | 6.4 | 0.00 | 0.00 | 0.00 | 57 | 1019.6 |
| 20260905182947 | 17 | 314 | 3.2 | 9.7 | 0.00 | 0.00 | 0.00 | 61 | 1019.7 |
| 20260905182444 | 16 | 124 | 3.2 | 9.7 | 0.00 | 0.00 | 0.00 | 61 | 1019.7 |
| 20260905181942 | 16 | 103 | 3.2 | 9.7 | 0.00 | 0.00 | 0.00 | 62 | 1019.8 |
| 20260905181435 | 16 | 115 | 3.2 | 6.4 | 0.00 | 0.00 | 0.00 | 63 | 1019.8 |
| 20260905180935 | 16 | 136 | 3.2 | 6.4 | 0.00 | 0.00 | 0.00 | 64 | 1019.9 |
| 20260905180434 | 16 | 104 | 3.2 | 6.4 | 0.00 | 0.00 | 0.00 | 64 | 1019.9 |
| 20260905175933 | 16 | 100 | 1.6 | 4.8 | 0.00 | 0.00 | 0.00 | 64 | 1019.9 |
| 20260905175432 | 16 | 284 | 1.6 | 4.8 | 0.00 | 0.00 | 0.00 | 66 | 1019.9 |
| 20260905174929 | 16 | 109 | 3.2 | 9.7 | 0.00 | 0.00 | 0.00 | 66 | 1020.0 |
| 20260905174431 | 15 | 76 | 3.2 | 9.7 | 0.00 | 0.00 | 0.00 | 68 | 1020.1 |
| 20260905173931 | 15 | 119 | 3.2 | 6.4 | 0.00 | 0.00 | 0.00 | 68 | 1020.2 |
| 20260905173431 | 15 | 138 | 3.2 | 6.4 | 0.00 | 0.00 | 0.00 | 69 | 1020.2 |
| 20260905172931 | 15 | 104 | 1.6 | 4.8 | 0.00 | 0.00 | 0.00 | 69 | 1020.2 |
| 20260905172435 | 15 | 96 | 1.6 | 4.8 | 0.00 | 0.00 | 0.00 | 71 | 1020.2 |
| 20260905172235 | 14 | 92 | 1.6 | 4.8 | 0.00 | 0.00 | 0.00 | 72 | 1020.2 |
| 20260905171434 | 14 | 101 | 1.6 | 4.8 | 0.00 | 0.00 | 0.00 | 73 | 1020.2 |
| 20260905171230 | 13 | 95 | 1.6 | 6.4 | 0.00 | 0.00 | 0.00 | 74 | 1020.3 |
| 20260905170429 | 13 | 113 | 1.6 | 6.4 | 0.00 | 0.00 | 0.00 | 73 | 1020.3 |
| 20260905165931 | 13 | 324 | 1.6 | 6.4 | 0.00 | 0.00 | 0.00 | 75 | 1020.3 |
| 20260905165430 | 13 | 99 | 1.6 | 3.2 | 0.00 | 0.00 | 0.00 | 74 | 1020.4 |
| 20260905164929 | 13 | 94 | 1.6 | 6.4 | 0.00 | 0.00 | 0.00 | 75 | 1020.3 |
| 20260905164429 | 13 | 111 | 1.6 | 6.4 | 0.00 | 0.00 | 0.00 | 76 | 1020.6 |
| 20260905164229 | 12 | 97 | 1.6 | 4.8 | 0.00 | 0.00 | 0.00 | 76 | 1020.6 |
| 20260905163430 | 12 | 111 | 1.6 | 4.8 | 0.00 | 0.00 | 0.00 | 78 | 1020.7 |
| 20260905162927 | 12 | 333 | 1.6 | 6.4 | 0.00 | 0.00 | 0.00 | 78 | 1020.8 |
| 20260905162426 | 12 | 119 | 1.6 | 6.4 | 0.00 | 0.00 | 0.00 | 79 | 1020.8 |
| 20260905162226 | 12 | 99 | 1.6 | 4.8 | 0.00 | 0.00 | 0.00 | 78 | 1020.8 |
| 20260905161426 | 12 | 3 | 1.6 | 6.4 | 0.00 | 0.00 | 0.00 | 78 | 1020.9 |
| 20260905160925 | 12 | 99 | 1.6 | 6.4 | 0.00 | 0.00 | 0.00 | 78 | 1020.9 |
| 20260905160427 | 12 | 329 | 1.6 | 6.4 | 0.00 | 0.00 | 0.00 | 78 | 1020.9 |
| 20260905155924 | 12 | 96 | 1.6 | 6.4 | 0.00 | 0.00 | 0.00 | 77 | 1020.9 |
| 20260905155423 | 12 | 119 | 1.6 | 4.8 | 0.00 | 0.00 | 0.00 | 77 | 1020.9 |
| 20260905154921 | 12 | 100 | 1.6 | 3.2 | 0.00 | 0.00 | 0.00 | 78 | 1020.9 |
| 20260905154420 | 12 | 102 | 1.6 | 3.2 | 0.00 | 0.00 | 0.00 | 78 | 1020.8 |
| 20260905153920 | 12 | 106 | 1.6 | 3.2 | 0.00 | 0.00 | 0.00 | 78 | 1020.9 |
| 20260905153715 | 11 | 98 | 0.0 | 3.2 | 0.00 | 0.00 | 0.00 | 79 | 1020.8 |
| 20260905152917 | 11 | 98 | 0.0 | 3.2 | 0.00 | 0.00 | 0.00 | 79 | 1020.9 |
| 20260905152719 | 11 | 317 | 0.0 | 3.2 | 0.00 | 0.00 | 0.00 | 80 | 1020.9 |
| 20260905151912 | 11 | 317 | 0.0 | 3.2 | 0.00 | 0.00 | 0.00 | 82 | 1020.9 |
| 20260905151412 | 10 | 317 | 0.0 | 3.2 | 0.00 | 0.00 | 0.00 | 84 | 1020.9 |
| 20260905150910 | 10 | 317 | 0.0 | 1.6 | 0.00 | 0.00 | 0.00 | 85 | 1020.9 |
| 20260905150411 | 10 | 317 | 0.0 | 1.6 | 0.00 | 0.00 | 0.00 | 85 | 1020.9 |
| 20260905145910 | 9 | 317 | 0.0 | 0.0 | 0.00 | 0.00 | 0.00 | 86 | 1021.0 |
| 20260905145412 | 9 | 317 | 0.0 | 0.0 | 0.00 | 0.00 | 0.00 | 87 | 1021.0 |
| 20260905144910 | 8 | 317 | 0.0 | 0.0 | 0.00 | 0.00 | 0.00 | 88 | 1021.1 |
| 20260905144408 | 8 | 317 | 0.0 | 3.2 | 0.00 | 0.00 | 0.00 | 89 | 1021.1 |
| 20260905143906 | 8 | 317 | 0.0 | 3.2 | 0.00 | 0.00 | 0.00 | 89 | 1021.1 |
| 20260905143404 | 8 | 317 | 0.0 | 3.2 | 0.00 | 0.00 | 0.00 | 89 | 1021.0 |
| 20260905142902 | 7 | 317 | 0.0 | 3.2 | 0.00 | 0.00 | 0.00 | 89 | 1021.0 |
| 20260905142403 | 7 | 317 | 0.0 | 3.2 | 0.00 | 0.00 | 0.00 | 89 | 1021.0 |
| 20260905141902 | 7 | 317 | 0.0 | 3.2 | 0.00 | 0.00 | 0.00 | 90 | 1020.9 |
| 20260905141402 | 7 | 317 | 0.0 | 3.2 | 0.00 | 0.00 | 0.00 | 89 | 1020.8 |
| 20260905141013 | 7 | 317 | 0.0 | 1.6 | 0.00 | 0.00 | 0.00 | 88 | 1020.8 |
| 20260905140949 | 7 | 317 | 0.0 | 3.2 | 0.00 | 0.00 | 0.00 | 89 | 1020.8 |
| 20260905135901 | 7 | 317 | 0.0 | 1.6 | 0.00 | 0.00 | 0.00 | 88 | 1020.8 |
| 20260905135401 | 7 | 317 | 1.6 | 1.6 | 0.00 | 0.00 | 0.00 | 89 | 1020.8 |
| 20260905134902 | 7 | 317 | 1.6 | 1.6 | 0.00 | 0.00 | 0.00 | 89 | 1020.8 |
| 20260905134400 | 7 | 317 | 0.0 | 3.2 | 0.00 | 0.00 | 0.00 | 89 | 1020.8 |
| 20260905133901 | 7 | 317 | 0.0 | 3.2 | 0.00 | 0.00 | 0.00 | 89 | 1020.7 |
| 20260905133656 | 7 | 317 | 1.6 | 3.2 | 0.00 | 0.00 | 0.00 | 89 | 1020.7 |
| 20260905133210 | 7 | 317 | 1.6 | 1.6 | 0.00 | 0.00 | 0.00 | 89 | 1020.7 |
| 20260905132401 | 7 | 317 | 1.6 | 1.6 | 0.00 | 0.00 | 0.00 | 88 | 1020.7 |
| 20260905131859 | 7 | 317 | 1.6 | 1.6 | 0.00 | 0.00 | 0.00 | 88 | 1020.7 |
| 20260905131400 | 7 | 317 | 0.0 | 3.2 | 0.00 | 0.00 | 0.00 | 88 | 1020.6 |
| 20260905130900 | 7 | 307 | 0.0 | 3.2 | 0.00 | 0.00 | 0.00 | 88 | 1020.4 |
| 20260905130358 | 7 | 317 | 0.0 | 3.2 | 0.00 | 0.00 | 0.00 | 88 | 1020.4 |
| 20260905125857 | 7 | 317 | 0.0 | 3.2 | 0.00 | 0.00 | 0.00 | 88 | 1020.4 |
| 20260905125355 | 7 | 317 | 1.6 | 1.6 | 0.00 | 0.00 | 0.00 | 89 | 1020.4 |
| 20260905124854 | 7 | 317 | 1.6 | 1.6 | 0.00 | 0.00 | 0.00 | 89 | 1020.4 |
| 20260905124353 | 7 | 317 | 1.6 | 1.6 | 0.00 | 0.00 | 0.00 | 88 | 1020.6 |
| 20260905123854 | 7 | 317 | 0.0 | 1.6 | 0.00 | 0.00 | 0.00 | 88 | 1020.4 |
| 20260905123354 | 7 | 317 | 0.0 | 1.6 | 0.00 | 0.00 | 0.00 | 88 | 1020.6 |
| 20260905122855 | 7 | 307 | 0.0 | 1.6 | 0.00 | 0.00 | 0.00 | 88 | 1020.6 |
| 20260905122353 | 7 | 317 | 0.0 | 1.6 | 0.00 | 0.00 | 0.00 | 87 | 1020.6 |
| 20260905121854 | 8 | 317 | 0.0 | 1.6 | 0.00 | 0.00 | 0.00 | 87 | 1020.7 |
| 20260905121351 | 8 | 317 | 0.0 | 1.6 | 0.00 | 0.00 | 0.00 | 86 | 1020.7 |
| 20260905120852 | 8 | 317 | 0.0 | 1.6 | 0.00 | 0.00 | 0.00 | 86 | 1020.6 |
| 20260905120352 | 8 | 317 | 0.0 | 3.2 | 0.00 | 0.00 | 0.00 | 86 | 1020.7 |
| 20260905115852 | 8 | 317 | 0.0 | 3.2 | 0.00 | 0.00 | 0.00 | 86 | 1020.7 |
| 20260905115353 | 8 | 317 | 0.0 | 1.6 | 0.00 | 0.00 | 0.00 | 86 | 1020.8 |
| 20260905114849 | 8 | 317 | 0.0 | 1.6 | 0.00 | 0.00 | 0.00 | 85 | 1020.7 |
| 20260905114347 | 9 | 317 | 0.0 | 1.6 | 0.00 | 0.00 | 0.00 | 85 | 1020.7 |
| 20260905113848 | 9 | 317 | 0.0 | 1.6 | 0.00 | 0.00 | 0.00 | 84 | 1020.7 |
| 20260905113346 | 9 | 317 | 0.0 | 3.2 | 0.00 | 0.00 | 0.00 | 84 | 1020.7 |
| 20260905112843 | 9 | 317 | 0.0 | 3.2 | 0.00 | 0.00 | 0.00 | 85 | 1020.6 |
| 20260905112343 | 10 | 317 | 0.0 | 3.2 | 0.00 | 0.00 | 0.00 | 85 | 1020.6 |
| 20260905111844 | 9 | 317 | 0.0 | 3.2 | 0.00 | 0.00 | 0.00 | 85 | 1020.6 |
| 20260905111644 | 9 | 317 | 0.0 | 3.2 | 0.00 | 0.00 | 0.00 | 85 | 1020.4 |
| 20260905110840 | 9 | 317 | 0.0 | 3.2 | 0.00 | 0.00 | 0.00 | 84 | 1020.6 |
| 20260905110339 | 10 | 317 | 0.0 | 0.0 | 0.00 | 0.00 | 0.00 | 84 | 1020.6 |
| 20260905110141 | 10 | 317 | 0.0 | 3.2 | 0.00 | 0.00 | 0.00 | 84 | 1020.6 |
| 20260905105340 | 10 | 317 | 0.0 | 3.2 | 0.00 | 0.00 | 0.00 | 84 | 1020.6 |
| 20260905104840 | 10 | 317 | 0.0 | 3.2 | 0.00 | 0.00 | 0.00 | 83 | 1020.6 |
| 20260905104339 | 10 | 317 | 0.0 | 3.2 | 0.00 | 0.00 | 0.00 | 83 | 1020.4 |
| 20260905103840 | 10 | 317 | 0.0 | 1.6 | 0.00 | 0.00 | 0.00 | 83 | 1020.6 |
| 20260905103638 | 10 | 317 | 0.0 | 3.2 | 0.00 | 0.00 | 0.00 | 83 | 1020.6 |
| 20260905102840 | 10 | 317 | 0.0 | 3.2 | 0.00 | 0.00 | 0.00 | 83 | 1020.4 |
| 20260905102339 | 10 | 317 | 0.0 | 3.2 | 0.00 | 0.00 | 0.00 | 83 | 1020.6 |
| 20260905101840 | 10 | 317 | 1.6 | 3.2 | 0.00 | 0.00 | 0.00 | 82 | 1020.4 |
| 20260905101340 | 10 | 317 | 1.6 | 1.6 | 0.00 | 0.00 | 0.00 | 83 | 1020.6 |
| 20260905100839 | 10 | 317 | 1.6 | 1.6 | 0.00 | 0.00 | 0.00 | 83 | 1020.4 |
| 20260905100340 | 10 | 307 | 0.0 | 3.2 | 0.00 | 0.00 | 0.00 | 83 | 1020.4 |
| 20260905095840 | 10 | 317 | 0.0 | 3.2 | 0.00 | 0.00 | 0.00 | 83 | 1020.4 |
| 20260905095339 | 10 | 317 | 0.0 | 3.2 | 0.00 | 0.00 | 0.00 | 82 | 1020.3 |
| 20260905094837 | 10 | 317 | 0.0 | 3.2 | 0.00 | 0.00 | 0.00 | 82 | 1020.4 |
| 20260905094337 | 10 | 317 | 0.0 | 3.2 | 0.00 | 0.00 | 0.00 | 83 | 1020.4 |
| 20260905093837 | 10 | 317 | 1.6 | 1.6 | 0.00 | 0.00 | 0.00 | 83 | 1020.4 |
| 20260905093338 | 10 | 317 | 1.6 | 1.6 | 0.00 | 0.00 | 0.00 | 83 | 1020.4 |
| 20260905092834 | 10 | 317 | 0.0 | 1.6 | 0.00 | 0.00 | 0.00 | 84 | 1020.3 |
| 20260905092635 | 10 | 317 | 0.0 | 1.6 | 0.00 | 0.00 | 0.00 | 83 | 1020.3 |
| 20260905092129 | 10 | 317 | 0.0 | 1.6 | 0.00 | 0.00 | 0.00 | 83 | 1020.4 |
| 20260905091329 | 10 | 317 | 0.0 | 3.2 | 0.00 | 0.00 | 0.00 | 83 | 1020.4 |
| 20260905090829 | 10 | 317 | 0.0 | 3.2 | 0.00 | 0.00 | 0.00 | 83 | 1020.4 |
| 20260905090328 | 10 | 317 | 1.6 | 1.6 | 0.00 | 0.00 | 0.00 | 83 | 1020.4 |
| 20260905085830 | 10 | 317 | 0.0 | 3.2 | 0.00 | 0.00 | 0.00 | 83 | 1020.4 |
| 20260905085629 | 10 | 317 | 0.0 | 3.2 | 0.00 | 0.00 | 0.00 | 83 | 1020.4 |
| 20260905084829 | 10 | 317 | 0.0 | 3.2 | 0.00 | 0.00 | 0.00 | 83 | 1020.4 |
| 20260905084329 | 10 | 317 | 0.0 | 3.2 | 0.00 | 0.00 | 0.00 | 83 | 1020.4 |
| 20260905083829 | 10 | 317 | 0.0 | 3.2 | 0.00 | 0.00 | 0.00 | 83 | 1020.4 |
| 20260905083328 | 10 | 317 | 0.0 | 3.2 | 0.00 | 0.00 | 0.00 | 83 | 1020.4 |
| 20260905083128 | 10 | 317 | 0.0 | 3.2 | 0.00 | 0.00 | 0.00 | 82 | 1020.4 |
| 20260905082329 | 10 | 317 | 0.0 | 3.2 | 0.00 | 0.00 | 0.00 | 82 | 1020.4 |
| 20260905082129 | 10 | 317 | 0.0 | 3.2 | 0.00 | 0.00 | 0.00 | 81 | 1020.4 |
| 20260905081329 | 10 | 317 | 0.0 | 3.2 | 0.00 | 0.00 | 0.00 | 81 | 1020.4 |
| 20260905080828 | 10 | 317 | 0.0 | 3.2 | 0.00 | 0.00 | 0.00 | 81 | 1020.3 |
| 20260905080629 | 10 | 317 | 0.0 | 3.2 | 0.00 | 0.00 | 0.00 | 80 | 1020.3 |
| 20260905075829 | 10 | 317 | 0.0 | 3.2 | 0.00 | 0.00 | 0.00 | 80 | 1020.3 |
| 20260905075329 | 10 | 317 | 0.0 | 3.2 | 0.00 | 0.00 | 0.00 | 80 | 1020.3 |
| 20260905075133 | 11 | 317 | 0.0 | 3.2 | 0.00 | 0.00 | 0.00 | 80 | 1020.2 |
| 20260905074327 | 11 | 317 | 0.0 | 3.2 | 0.00 | 0.00 | 0.00 | 80 | 1020.2 |
| 20260905073825 | 11 | 317 | 0.0 | 3.2 | 0.00 | 0.00 | 0.00 | 81 | 1020.2 |
| 20260905073323 | 11 | 317 | 0.0 | 3.2 | 0.00 | 0.00 | 0.00 | 81 | 1020.1 |
| 20260905072822 | 11 | 317 | 0.0 | 3.2 | 0.00 | 0.00 | 0.00 | 81 | 1020.1 |
| 20260905072319 | 10 | 318 | 0.0 | 3.2 | 0.00 | 0.00 | 0.00 | 81 | 1020.2 |
| 20260905071819 | 11 | 318 | 0.0 | 3.2 | 0.00 | 0.00 | 0.00 | 81 | 1020.2 |
| 20260905071319 | 11 | 318 | 1.6 | 3.2 | 0.00 | 0.00 | 0.00 | 81 | 1020.2 |
| 20260905070819 | 10 | 318 | 1.6 | 3.2 | 0.00 | 0.00 | 0.00 | 81 | 1020.2 |
| 20260905070621 | 10 | 327 | 1.6 | 3.2 | 0.00 | 0.00 | 0.00 | 80 | 1020.2 |
| 20260905065819 | 11 | 344 | 0.0 | 3.2 | 0.00 | 0.00 | 0.00 | 80 | 1020.2 |
| 20260905065319 | 11 | 337 | 0.0 | 3.2 | 0.00 | 0.00 | 0.00 | 79 | 1020.0 |
| 20260905064814 | 11 | 344 | 0.0 | 1.6 | 0.00 | 0.00 | 0.00 | 79 | 1020.0 |
| 20260905064312 | 11 | 344 | 0.0 | 1.6 | 0.00 | 0.00 | 0.00 | 78 | 1020.0 |
| 20260905064105 | 11 | 344 | 0.0 | 3.2 | 0.00 | 0.00 | 0.00 | 79 | 1020.0 |
| 20260905063312 | 11 | 344 | 0.0 | 3.2 | 0.00 | 0.00 | 0.00 | 78 | 1019.8 |
| 20260905063109 | 11 | 344 | 0.0 | 3.2 | 0.00 | 0.00 | 0.00 | 79 | 1019.9 |
| 20260905062310 | 11 | 344 | 0.0 | 3.2 | 0.00 | 0.00 | 0.00 | 79 | 1019.9 |
| 20260905061808 | 11 | 344 | 0.0 | 3.2 | 0.00 | 0.00 | 0.00 | 79 | 1020.0 |
| 20260905061307 | 11 | 344 | 0.0 | 3.2 | 0.00 | 0.00 | 0.00 | 79 | 1020.0 |
| 20260905060805 | 11 | 344 | 0.0 | 3.2 | 0.00 | 0.00 | 0.00 | 79 | 1020.1 |
| 20260905060306 | 11 | 344 | 1.6 | 3.2 | 0.00 | 0.00 | 0.00 | 79 | 1020.0 |
| 20260905055806 | 11 | 344 | 1.6 | 1.6 | 0.00 | 0.00 | 0.00 | 80 | 1020.1 |
| 20260905055306 | 11 | 348 | 0.0 | 3.2 | 0.00 | 0.00 | 0.00 | 80 | 1020.0 |
| 20260905055103 | 10 | 17 | 0.0 | 3.2 | 0.00 | 0.00 | 0.00 | 81 | 1020.0 |
| 20260905054304 | 10 | 17 | 0.0 | 3.2 | 0.00 | 0.00 | 0.00 | 81 | 1019.9 |
| 20260905053804 | 10 | 17 | 0.0 | 3.2 | 0.00 | 0.00 | 0.00 | 81 | 1019.9 |
| 20260905053304 | 10 | 13 | 1.6 | 3.2 | 0.00 | 0.00 | 0.00 | 80 | 1019.9 |
| 20260905052804 | 11 | 17 | 0.0 | 3.2 | 0.00 | 0.00 | 0.00 | 79 | 1019.9 |
| 20260905052605 | 11 | 17 | 0.0 | 3.2 | 0.00 | 0.00 | 0.00 | 80 | 1019.9 |
| 20260905052100 | 11 | 17 | 0.0 | 3.2 | 0.00 | 0.00 | 0.00 | 79 | 1019.9 |
| 20260905051301 | 11 | 17 | 0.0 | 3.2 | 0.00 | 0.00 | 0.00 | 79 | 1019.9 |
| 20260905050803 | 11 | 17 | 0.0 | 3.2 | 0.00 | 0.00 | 0.00 | 79 | 1019.9 |
| 20260905050301 | 11 | 17 | 0.0 | 3.2 | 0.00 | 0.00 | 0.00 | 78 | 1019.8 |
| 20260905045801 | 11 | 17 | 0.0 | 3.2 | 0.00 | 0.00 | 0.00 | 78 | 1019.8 |
| 20260905045305 | 11 | 17 | 0.0 | 3.2 | 0.00 | 0.00 | 0.00 | 78 | 1019.8 |
| 20260905044801 | 11 | 17 | 1.6 | 1.6 | 0.00 | 0.00 | 0.00 | 78 | 1019.8 |
| 20260905044301 | 11 | 17 | 1.6 | 1.6 | 0.00 | 0.00 | 0.00 | 78 | 1019.8 |
| 20260905043801 | 11 | 17 | 0.0 | 1.6 | 0.00 | 0.00 | 0.00 | 78 | 1019.8 |
| 20260905043301 | 11 | 17 | 1.6 | 1.6 | 0.00 | 0.00 | 0.00 | 78 | 1019.7 |
| 20260905042802 | 11 | 13 | 1.6 | 1.6 | 0.00 | 0.00 | 0.00 | 77 | 1019.7 |
| 20260905042302 | 12 | 17 | 1.6 | 1.6 | 0.00 | 0.00 | 0.00 | 76 | 1019.7 |
| 20260905041801 | 12 | 17 | 1.6 | 1.6 | 0.00 | 0.00 | 0.00 | 76 | 1019.6 |
| 20260905041559 | 12 | 17 | 0.0 | 3.2 | 0.00 | 0.00 | 0.00 | 76 | 1019.6 |
| 20260905040801 | 12 | 17 | 0.0 | 3.2 | 0.00 | 0.00 | 0.00 | 76 | 1019.5 |
| 20260905040301 | 12 | 17 | 0.0 | 3.2 | 0.00 | 0.00 | 0.00 | 75 | 1019.4 |
| 20260905035800 | 12 | 17 | 0.0 | 3.2 | 0.00 | 0.00 | 0.00 | 74 | 1019.4 |
| 20260905035306 | 12 | 17 | 0.0 | 3.2 | 0.00 | 0.00 | 0.00 | 74 | 1019.3 |
| 20260905034847 | 12 | 17 | 0.0 | 3.2 | 0.00 | 0.00 | 0.00 | 72 | 1019.2 |
| 20260905034055 | 13 | 96 | 0.0 | 3.2 | 0.00 | 0.00 | 0.00 | 69 | 1019.1 |
| 20260905033302 | 13 | 96 | 0.0 | 3.2 | 0.00 | 0.00 | 0.00 | 69 | 1019.0 |
| 20260905032802 | 13 | 96 | 0.0 | 3.2 | 0.00 | 0.00 | 0.00 | 68 | 1019.0 |
| 20260905032405 | 13 | 84 | 0.0 | 3.2 | 0.00 | 0.00 | 0.00 | 68 | 1018.8 |
| 20260905032345 | 13 | 96 | 0.0 | 1.6 | 0.00 | 0.00 | 0.00 | 68 | 1018.9 |
| 20260905031303 | 14 | 96 | 0.0 | 3.2 | 0.00 | 0.00 | 0.00 | 67 | 1018.8 |
| 20260905030803 | 14 | 96 | 0.0 | 3.2 | 0.00 | 0.00 | 0.00 | 66 | 1018.7 |
| 20260905030303 | 15 | 96 | 0.0 | 3.2 | 0.00 | 0.00 | 0.00 | 65 | 1018.7 |
| 20260905025802 | 15 | 100 | 0.0 | 3.2 | 0.00 | 0.00 | 0.00 | 64 | 1018.6 |
| 20260905025305 | 15 | 100 | 0.0 | 3.2 | 0.00 | 0.00 | 0.00 | 63 | 1018.6 |
| 20260905024802 | 15 | 100 | 0.0 | 3.2 | 0.00 | 0.00 | 0.00 | 61 | 1018.6 |
| 20260905024303 | 16 | 318 | 0.0 | 3.2 | 0.00 | 0.00 | 0.00 | 62 | 1018.5 |
| 20260905023802 | 16 | 318 | 0.0 | 3.2 | 0.00 | 0.00 | 0.00 | 62 | 1018.5 |
| 20260905023303 | 16 | 318 | 0.0 | 3.2 | 0.00 | 0.00 | 0.00 | 61 | 1018.4 |
| 20260905022802 | 16 | 318 | 0.0 | 3.2 | 0.00 | 0.00 | 0.00 | 62 | 1018.4 |
| 20260905022305 | 16 | 294 | 0.0 | 3.2 | 0.00 | 0.00 | 0.00 | 61 | 1018.4 |
| 20260905021803 | 16 | 294 | 0.0 | 3.2 | 0.00 | 0.00 | 0.00 | 61 | 1018.2 |
| 20260905021303 | 16 | 295 | 0.0 | 3.2 | 0.00 | 0.00 | 0.00 | 60 | 1018.4 |
| 20260905020803 | 16 | 295 | 0.0 | 3.2 | 0.00 | 0.00 | 0.00 | 59 | 1018.2 |
| 20260905020302 | 16 | 294 | 0.0 | 3.2 | 0.00 | 0.00 | 0.00 | 58 | 1018.2 |
| 20260905015802 | 16 | 294 | 0.0 | 3.2 | 0.00 | 0.00 | 0.00 | 60 | 1018.2 |
| 20260905015301 | 16 | 324 | 1.6 | 3.2 | 0.00 | 0.00 | 0.00 | 58 | 1018.1 |
| 20260905014802 | 16 | 106 | 1.6 | 3.2 | 0.00 | 0.00 | 0.00 | 57 | 1018.1 |
| 20260905014557 | 16 | 123 | 0.0 | 3.2 | 0.00 | 0.00 | 0.00 | 57 | 1018.1 |
| 20260905013803 | 16 | 127 | 0.0 | 3.2 | 0.00 | 0.00 | 0.00 | 59 | 1018.1 |
| 20260905013304 | 16 | 127 | 0.0 | 3.2 | 0.00 | 0.00 | 0.00 | 60 | 1018.0 |
| 20260905012802 | 16 | 127 | 0.0 | 3.2 | 0.00 | 0.00 | 0.00 | 61 | 1018.0 |
| 20260905012306 | 16 | 127 | 0.0 | 3.2 | 0.00 | 0.00 | 0.00 | 59 | 1018.0 |
| 20260905012058 | 16 | 197 | 0.0 | 3.2 | 0.00 | 0.00 | 0.00 | 58 | 1017.9 |
| 20260905011302 | 17 | 111 | 0.0 | 3.2 | 0.00 | 0.00 | 0.00 | 60 | 1017.9 |
| 20260905010802 | 17 | 111 | 0.0 | 3.2 | 0.00 | 0.00 | 0.00 | 58 | 1017.9 |
| 20260905010305 | 17 | 108 | 0.0 | 3.2 | 0.00 | 0.00 | 0.00 | 56 | 1017.9 |
| 20260905005803 | 17 | 108 | 0.0 | 4.8 | 0.00 | 0.00 | 0.00 | 55 | 1017.9 |
| 20260905005306 | 17 | 108 | 0.0 | 4.8 | 0.00 | 0.00 | 0.00 | 55 | 1017.9 |
| 20260905004802 | 17 | 80 | 0.0 | 3.2 | 0.00 | 0.00 | 0.00 | 54 | 1017.8 |
| 20260905004405 | 17 | 267 | 1.6 | 4.8 | 0.00 | 0.00 | 0.00 | 55 | 1017.8 |
| 20260905004343 | 17 | 327 | 1.6 | 3.2 | 0.00 | 0.00 | 0.00 | 54 | 1017.8 |
| 20260905003303 | 17 | 284 | 0.0 | 4.8 | 0.00 | 0.00 | 0.00 | 54 | 1017.7 |
| 20260905002802 | 17 | 257 | 0.0 | 3.2 | 0.00 | 0.00 | 0.00 | 55 | 1017.7 |